sat.trackr.live / text

‹ back to catalog

STARLINK-33608

NORAD 63425 · 2025-065AC

PAYLOAD ACTIVE UNKNOWN

§ Identity

Operator
Country
US
Launch date
2025-03-31
Launch site
AFETR
Launch vehicle
Mass (kg)
RCS (m²)

Purposes: comms

External: N2YO · Heavens-Above · Gunter

§ Orbital elements

Epoch: 2026-09-20T05:49:28.915392Z

Period
94.27 min
Inclination
43.0041°
Eccentricity
0.0001838
Mean motion
15.27580366 rev/d
Perigee alt
481.8 km
Apogee alt
484.3 km
Semi-major
6,861.2 km
B*
4.6086e-4
RAAN
88.3282°
Arg perigee
269.2124°
Mean anomaly
90.8517°
Rev number
8,259

§ Raw data

STARLINK-336081 63425U 25065AC  26263.24269578  .00012441  00000+0  46086-3 0  99982 63425  43.0041  88.3282 0001838 269.2124  90.8517 15.27580366 82598

JSON: /api/v1/satellites/63425 · /tle

For live sub-satellite position, see the globe view (requires WebGL).

§ Visibility from observer

Set your observer location to see the next 7 days of passes ≥ 10°. The values pass through the URL so the page stays shareable.

No JS? Fill the form by hand. The geolocation button needs JavaScript.